User: anonymous   Login
Location: Altleiningen
(49.5078°N, 8.0741°E)
Time: 22:41:53
(UTC+00:00)
Language:

Okean 1 - Orbit

View from above orbital plane
View from above orbital plane
View from above satellite
View from above satellite

Ground track
Ground track

The orbit data is extracted from the following two-line orbital elements,

1 19274U 88056A   21137.90541953  .00000917  00000-0  59664-4 0  9991
2 19274  82.5054 199.1572 0013467 107.2702 253.0001 15.06711290769110
Epoch (UTC): 17 May 2021 21:43:48
Eccentricity: 0.0013467
inclination: 82.5054°
perigee height: 537 km
apogee height: 555 km
right ascension of ascending node: 199.1572°
argument of perigee: 107.2702°
revolutions per day: 15.06711290
mean anomaly at epoch: 253.0001°
orbit number at epoch: 76911

The dashed part of the orbit path shows where the satellite is in the earth's shadow,  

DLR